| time (UTC) | temp F | wind direction | speed MPH | gust MPH | rain 1hr in | rain 24hr in | rain mn in | humidity % | barometer mb |
| 20260905120055 | 77 | 0.0 | 0.0 | 0.00 | 0.00 | 0.00 | 86 | 1013.7 | |
| 20260905115015 | 77 | 0.0 | 0.0 | 0.00 | 0.00 | 0.00 | 85 | 1013.7 | |
| 20260905114015 | 77 | 0.0 | 0.0 | 0.00 | 0.00 | 0.00 | 85 | 1013.6 | |
| 20260905113015 | 77 | 0.0 | 0.0 | 0.00 | 0.00 | 0.00 | 85 | 1013.7 | |
| 20260905112015 | 78 | 0.0 | 0.0 | 0.00 | 0.00 | 0.00 | 84 | 1013.7 | |
| 20260905111016 | 78 | 0.0 | 0.0 | 0.00 | 0.00 | 0.00 | 84 | 1013.8 | |
| 20260905110015 | 78 | 0.0 | 0.0 | 0.00 | 0.00 | 0.00 | 84 | 1013.8 | |
| 20260905105015 | 78 | 0.0 | 0.0 | 0.00 | 0.00 | 0.00 | 84 | 1013.7 | |
| 20260905104016 | 78 | 0.0 | 1.0 | 0.00 | 0.00 | 0.00 | 84 | 1013.6 | |
| 20260905103015 | 78 | 0.0 | 1.0 | 0.00 | 0.00 | 0.00 | 84 | 1013.6 | |
| 20260905102015 | 79 | 0.0 | 0.0 | 0.00 | 0.00 | 0.00 | 83 | 1013.6 | |
| 20260905101015 | 79 | 0.0 | 1.0 | 0.00 | 0.00 | 0.00 | 83 | 1013.4 | |
| 20260905100035 | 79 | 158 | 2.0 | 10.0 | 0.00 | 0.00 | 0.00 | 83 | 1013.5 |
| 20260905095015 | 79 | 158 | 1.0 | 6.0 | 0.00 | 0.00 | 0.00 | 82 | 1013.4 |
| 20260905094035 | 79 | 0.0 | 3.0 | 0.00 | 0.00 | 0.00 | 82 | 1013.5 | |
| 20260905093015 | 79 | 0.0 | 6.0 | 0.00 | 0.00 | 0.00 | 82 | 1013.6 | |
| 20260905092015 | 80 | 158 | 2.0 | 6.0 | 0.00 | 0.00 | 0.00 | 82 | 1013.7 |
| 20260905091015 | 80 | 158 | 1.0 | 5.0 | 0.00 | 0.00 | 0.00 | 81 | 1013.6 |
| 20260905090055 | 80 | 0.0 | 3.0 | 0.00 | 0.00 | 0.00 | 81 | 1013.7 | |
| 20260905085016 | 80 | 158 | 1.0 | 3.0 | 0.00 | 0.00 | 0.00 | 80 | 1013.5 |
| 20260905084016 | 80 | 0.0 | 3.0 | 0.00 | 0.00 | 0.00 | 80 | 1013.4 | |
| 20260905083036 | 80 | 158 | 1.0 | 4.0 | 0.00 | 0.00 | 0.00 | 79 | 1013.3 |
| 20260905082016 | 81 | 158 | 1.0 | 6.0 | 0.00 | 0.00 | 0.00 | 79 | 1013.3 |
| 20260905081016 | 81 | 0.0 | 2.0 | 0.00 | 0.00 | 0.00 | 78 | 1013.3 | |
| 20260905080016 | 81 | 0.0 | 1.0 | 0.00 | 0.00 | 0.00 | 77 | 1013.4 | |
| 20260905075016 | 81 | 158 | 1.0 | 4.0 | 0.00 | 0.00 | 0.00 | 77 | 1013.4 |
| 20260905074016 | 82 | 0.0 | 6.0 | 0.00 | 0.00 | 0.00 | 77 | 1013.4 | |
| 20260905073016 | 82 | 158 | 3.0 | 9.0 | 0.00 | 0.00 | 0.00 | 76 | 1013.4 |
| 20260905072016 | 82 | 135 | 2.0 | 9.0 | 0.00 | 0.00 | 0.00 | 76 | 1013.6 |
| 20260905071016 | 82 | 158 | 4.0 | 11.0 | 0.00 | 0.00 | 0.00 | 75 | 1013.6 |
| 20260905070036 | 82 | 158 | 4.0 | 10.0 | 0.00 | 0.00 | 0.00 | 75 | 1013.7 |
| 20260905065016 | 82 | 135 | 4.0 | 11.0 | 0.00 | 0.00 | 0.00 | 74 | 1013.7 |
| 20260905064016 | 83 | 158 | 3.0 | 11.0 | 0.00 | 0.00 | 0.00 | 74 | 1013.8 |
| 20260905063016 | 83 | 158 | 3.0 | 8.0 | 0.00 | 0.00 | 0.00 | 73 | 1013.8 |
| 20260905062016 | 83 | 135 | 4.0 | 10.0 | 0.00 | 0.00 | 0.00 | 73 | 1013.9 |
| 20260905061016 | 83 | 158 | 3.0 | 8.0 | 0.00 | 0.00 | 0.00 | 72 | 1013.9 |
| 20260905060016 | 83 | 135 | 4.0 | 9.0 | 0.00 | 0.00 | 0.00 | 72 | 1013.9 |
| 20260905055016 | 84 | 135 | 7.0 | 12.0 | 0.00 | 0.01 | 0.00 | 71 | 1013.7 |
| 20260905054016 | 84 | 135 | 3.0 | 11.0 | 0.00 | 0.01 | 0.00 | 71 | 1013.7 |
| 20260905053036 | 84 | 135 | 5.0 | 11.0 | 0.00 | 0.01 | 0.00 | 70 | 1013.7 |
| 20260905052016 | 84 | 158 | 5.0 | 11.0 | 0.00 | 0.01 | 0.00 | 70 | 1013.5 |
| 20260905051056 | 84 | 135 | 4.0 | 10.0 | 0.00 | 0.01 | 0.00 | 70 | 1013.5 |
| 20260905050016 | 85 | 135 | 6.0 | 14.0 | 0.00 | 0.01 | 0.00 | 69 | 1013.4 |
| 20260905045016 | 85 | 135 | 6.0 | 13.0 | 0.00 | 0.01 | 0.00 | 69 | 1013.5 |
| 20260905044016 | 85 | 135 | 5.0 | 10.0 | 0.00 | 0.01 | 0.00 | 68 | 1013.4 |
| 20260905043016 | 85 | 135 | 6.0 | 12.0 | 0.00 | 0.01 | 0.00 | 67 | 1013.3 |
| 20260905042016 | 86 | 135 | 4.0 | 9.0 | 0.00 | 0.01 | 0.00 | 66 | 1013.4 |
| 20260905041116 | 86 | 135 | 4.0 | 11.0 | 0.00 | 0.01 | 0.00 | 65 | 1013.5 |
| 20260905040016 | 86 | 135 | 6.0 | 11.0 | 0.00 | 0.01 | 0.00 | 64 | 1013.5 |
| 20260905035016 | 87 | 135 | 5.0 | 11.0 | 0.00 | 0.01 | 0.00 | 63 | 1013.6 |
| 20260905034036 | 87 | 135 | 6.0 | 14.0 | 0.00 | 0.01 | 0.00 | 62 | 1013.5 |
| 20260905033016 | 87 | 135 | 6.0 | 13.0 | 0.00 | 0.01 | 0.00 | 61 | 1013.3 |
| 20260905032016 | 87 | 135 | 5.0 | 10.0 | 0.00 | 0.01 | 0.00 | 60 | 1013.4 |
| 20260905031016 | 88 | 135 | 4.0 | 11.0 | 0.00 | 0.01 | 0.00 | 59 | 1013.3 |
| 20260905030016 | 88 | 135 | 5.0 | 10.0 | 0.00 | 0.01 | 0.00 | 58 | 1013.1 |
| 20260905025016 | 88 | 135 | 4.0 | 8.0 | 0.00 | 0.01 | 0.00 | 57 | 1013.0 |
| 20260905024016 | 88 | 113 | 3.0 | 7.0 | 0.00 | 0.01 | 0.00 | 57 | 1013.0 |
| 20260905023036 | 89 | 135 | 2.0 | 5.0 | 0.00 | 0.01 | 0.00 | 56 | 1012.8 |
| 20260905022016 | 89 | 135 | 3.0 | 7.0 | 0.00 | 0.01 | 0.00 | 55 | 1012.5 |
| 20260905021016 | 90 | 113 | 3.0 | 7.0 | 0.00 | 0.01 | 0.00 | 55 | 1012.4 |
| 20260905020016 | 90 | 113 | 3.0 | 7.0 | 0.00 | 0.01 | 0.00 | 54 | 1012.3 |
| 20260905015016 | 90 | 113 | 4.0 | 9.0 | 0.00 | 0.01 | 0.00 | 53 | 1012.0 |
| 20260905014016 | 91 | 113 | 3.0 | 7.0 | 0.00 | 0.01 | 0.00 | 53 | 1011.9 |
| 20260905013016 | 91 | 113 | 4.0 | 9.0 | 0.00 | 0.01 | 0.00 | 52 | 1011.7 |
| 20260905012016 | 91 | 113 | 5.0 | 9.0 | 0.00 | 0.01 | 0.00 | 52 | 1011.6 |
| 20260905011016 | 92 | 113 | 7.0 | 13.0 | 0.00 | 0.01 | 0.00 | 51 | 1011.6 |
| 20260905010016 | 92 | 113 | 7.0 | 12.0 | 0.00 | 0.01 | 0.00 | 50 | 1011.5 |
| 20260905005016 | 93 | 113 | 3.0 | 8.0 | 0.00 | 0.01 | 0.00 | 49 | 1011.5 |
| 20260905004016 | 93 | 113 | 7.0 | 11.0 | 0.00 | 0.01 | 0.00 | 48 | 1011.3 |
| 20260905003056 | 94 | 113 | 7.0 | 12.0 | 0.00 | 0.01 | 0.00 | 48 | 1011.2 |
| 20260905002016 | 94 | 113 | 8.0 | 13.0 | 0.00 | 0.01 | 0.00 | 47 | 1011.0 |
| 20260905001016 | 95 | 113 | 9.0 | 16.0 | 0.00 | 0.01 | 0.00 | 46 | 1011.0 |
| 20260905000016 | 96 | 135 | 5.0 | 10.0 | 0.00 | 0.01 | 0.00 | 45 | 1011.0 |
| 20260904235016 | 96 | 135 | 5.0 | 10.0 | 0.00 | 0.01 | 0.00 | 44 | 1010.9 |
| 20260904234016 | 96 | 135 | 5.0 | 11.0 | 0.00 | 0.01 | 0.00 | 44 | 1011.0 |
| 20260904233036 | 96 | 113 | 8.0 | 12.0 | 0.00 | 0.01 | 0.00 | 44 | 1011.0 |
| 20260904232016 | 97 | 135 | 3.0 | 10.0 | 0.00 | 0.01 | 0.00 | 45 | 1010.9 |
| 20260904231016 | 97 | 135 | 7.0 | 11.0 | 0.00 | 0.01 | 0.00 | 44 | 1011.0 |
| 20260904230016 | 97 | 113 | 7.0 | 12.0 | 0.00 | 0.01 | 0.00 | 44 | 1011.0 |
| 20260904225016 | 97 | 135 | 8.0 | 13.0 | 0.00 | 0.01 | 0.00 | 44 | 1011.1 |
| 20260904224016 | 97 | 90 | 3.0 | 9.0 | 0.00 | 0.01 | 0.00 | 45 | 1011.1 |
| 20260904223016 | 98 | 113 | 11.0 | 19.0 | 0.00 | 0.01 | 0.00 | 44 | 1011.3 |
| 20260904222016 | 98 | 135 | 4.0 | 11.0 | 0.00 | 0.01 | 0.00 | 42 | 1011.1 |
| 20260904221016 | 98 | 135 | 4.0 | 11.0 | 0.00 | 0.01 | 0.00 | 41 | 1011.2 |
| 20260904220016 | 98 | 113 | 7.0 | 12.0 | 0.00 | 0.01 | 0.00 | 41 | 1011.2 |
| 20260904215016 | 99 | 113 | 10.0 | 14.0 | 0.00 | 0.01 | 0.00 | 41 | 1011.4 |
| 20260904214016 | 99 | 113 | 4.0 | 11.0 | 0.00 | 0.01 | 0.00 | 41 | 1011.4 |
| 20260904213056 | 98 | 113 | 7.0 | 12.0 | 0.00 | 0.01 | 0.00 | 41 | 1011.5 |
| 20260904212016 | 98 | 90 | 9.0 | 15.0 | 0.00 | 0.01 | 0.00 | 42 | 1011.6 |
| 20260904211036 | 98 | 135 | 9.0 | 13.0 | 0.00 | 0.01 | 0.00 | 42 | 1011.8 |
| 20260904210016 | 99 | 158 | 4.0 | 15.0 | 0.00 | 0.01 | 0.00 | 42 | 1012.0 |
| 20260904205036 | 99 | 135 | 2.0 | 12.0 | 0.00 | 0.01 | 0.00 | 42 | 1012.1 |
| 20260904204016 | 99 | 90 | 1.0 | 2.0 | 0.00 | 0.01 | 0.00 | 43 | 1012.1 |
| 20260904203510 | 99 | 113 | 3.0 | 10.0 | 0.00 | 0.01 | 0.00 | 44 | 1012.3 |
| 20260904202516 | 99 | 90 | 1.0 | 6.0 | 0.00 | 0.01 | 0.00 | 44 | 1012.3 |
| 20260904201516 | 98 | 113 | 2.0 | 10.0 | 0.00 | 0.01 | 0.00 | 46 | 1012.5 |
| 20260904200516 | 98 | 135 | 5.0 | 12.0 | 0.00 | 0.01 | 0.00 | 45 | 1012.8 |
| 20260904195516 | 98 | 113 | 6.0 | 14.0 | 0.00 | 0.01 | 0.00 | 45 | 1013.0 |
| 20260904194516 | 98 | 135 | 3.0 | 10.0 | 0.00 | 0.01 | 0.00 | 46 | 1013.1 |
| 20260904193536 | 97 | 113 | 9.0 | 16.0 | 0.00 | 0.01 | 0.00 | 47 | 1013.2 |
| 20260904192516 | 97 | 113 | 7.0 | 15.0 | 0.00 | 0.01 | 0.00 | 48 | 1013.4 |
| 20260904191516 | 97 | 113 | 4.0 | 13.0 | 0.00 | 0.01 | 0.00 | 48 | 1013.3 |
| 20260904190516 | 96 | 135 | 6.0 | 12.0 | 0.00 | 0.01 | 0.00 | 47 | 1013.4 |
| 20260904185516 | 95 | 113 | 9.0 | 14.0 | 0.00 | 0.01 | 0.00 | 49 | 1013.6 |
| 20260904184516 | 94 | 135 | 8.0 | 15.0 | 0.00 | 0.01 | 0.00 | 50 | 1013.7 |
| 20260904183516 | 94 | 135 | 9.0 | 14.0 | 0.00 | 0.01 | 0.00 | 49 | 1013.8 |
| 20260904182516 | 95 | 113 | 8.0 | 14.0 | 0.00 | 0.01 | 0.00 | 48 | 1014.0 |
| 20260904181516 | 96 | 158 | 2.0 | 9.0 | 0.00 | 0.01 | 0.00 | 49 | 1014.0 |
| 20260904180516 | 96 | 135 | 6.0 | 14.0 | 0.00 | 0.01 | 0.00 | 48 | 1014.2 |
| 20260904175536 | 95 | 135 | 1.0 | 5.0 | 0.00 | 0.01 | 0.00 | 49 | 1014.3 |
| 20260904174536 | 95 | 158 | 6.0 | 13.0 | 0.00 | 0.01 | 0.00 | 48 | 1014.4 |
| 20260904173516 | 95 | 135 | 5.0 | 12.0 | 0.00 | 0.01 | 0.00 | 49 | 1014.6 |
| 20260904172516 | 94 | 180 | 2.0 | 9.0 | 0.00 | 0.01 | 0.00 | 52 | 1014.6 |
| 20260904171516 | 94 | 158 | 4.0 | 17.0 | 0.00 | 0.01 | 0.00 | 55 | 1014.8 |
| 20260904170536 | 93 | 158 | 2.0 | 11.0 | 0.00 | 0.01 | 0.00 | 56 | 1015.0 |
| 20260904165556 | 92 | 180 | 1.0 | 10.0 | 0.00 | 0.01 | 0.00 | 56 | 1014.8 |
| 20260904164516 | 91 | 203 | 1.0 | 6.0 | 0.00 | 0.01 | 0.00 | 56 | 1014.9 |
| 20260904163536 | 91 | 158 | 3.0 | 10.0 | 0.00 | 0.01 | 0.00 | 61 | 1015.0 |
| 20260904162536 | 90 | 158 | 1.0 | 6.0 | 0.00 | 0.01 | 0.00 | 63 | 1015.0 |
| 20260904161516 | 89 | 158 | 3.0 | 12.0 | 0.00 | 0.01 | 0.00 | 62 | 1015.1 |
| 20260904160516 | 88 | 158 | 3.0 | 9.0 | 0.00 | 0.01 | 0.00 | 67 | 1014.9 |
| 20260904155516 | 88 | 158 | 1.0 | 10.0 | 0.00 | 0.01 | 0.00 | 67 | 1014.9 |
| 20260904154556 | 87 | 158 | 2.0 | 10.0 | 0.00 | 0.01 | 0.00 | 70 | 1014.8 |
| 20260904153516 | 86 | 180 | 1.0 | 9.0 | 0.00 | 0.01 | 0.00 | 72 | 1014.9 |
| 20260904152516 | 85 | 158 | 2.0 | 10.0 | 0.00 | 0.01 | 0.00 | 76 | 1014.7 |
| 20260904151516 | 84 | 158 | 3.0 | 16.0 | 0.00 | 0.01 | 0.00 | 78 | 1014.7 |
| 20260904150536 | 82 | 158 | 1.0 | 10.0 | 0.00 | 0.01 | 0.00 | 86 | 1014.6 |
| 20260904145536 | 81 | 158 | 4.0 | 10.0 | 0.00 | 0.01 | 0.00 | 90 | 1014.7 |
| 20260904144516 | 80 | 135 | 4.0 | 8.0 | 0.00 | 0.01 | 0.00 | 91 | 1014.7 |
| 20260904143516 | 80 | 135 | 5.0 | 9.0 | 0.00 | 0.01 | 0.00 | 92 | 1014.8 |
| 20260904142536 | 79 | 113 | 5.0 | 10.0 | 0.00 | 0.01 | 0.00 | 92 | 1014.8 |
| 20260904141516 | 79 | 113 | 5.0 | 9.0 | 0.00 | 0.01 | 0.00 | 93 | 1014.6 |
| 20260904140516 | 79 | 113 | 3.0 | 7.0 | 0.00 | 0.01 | 0.00 | 93 | 1014.7 |
| 20260904135516 | 79 | 113 | 4.0 | 7.0 | 0.00 | 0.01 | 0.00 | 93 | 1014.5 |
| 20260904134516 | 78 | 135 | 2.0 | 6.0 | 0.00 | 0.01 | 0.00 | 94 | 1014.5 |
| 20260904133516 | 78 | 135 | 3.0 | 7.0 | 0.00 | 0.01 | 0.00 | 94 | 1014.4 |
| 20260904132516 | 78 | 135 | 3.0 | 8.0 | 0.00 | 0.01 | 0.00 | 94 | 1014.3 |
| 20260904131516 | 77 | 135 | 2.0 | 7.0 | 0.00 | 0.01 | 0.00 | 94 | 1014.2 |
| 20260904130516 | 77 | 90 | 3.0 | 6.0 | 0.00 | 0.01 | 0.00 | 94 | 1014.1 |
| 20260904125516 | 77 | 113 | 2.0 | 6.0 | 0.00 | 0.01 | 0.00 | 94 | 1014.0 |
| 20260904124516 | 77 | 0.0 | 3.0 | 0.00 | 0.01 | 0.00 | 94 | 1013.9 | |
| 20260904123516 | 77 | 135 | 2.0 | 5.0 | 0.00 | 0.01 | 0.00 | 94 | 1013.8 |
| 20260904122516 | 77 | 113 | 1.0 | 3.0 | 0.00 | 0.01 | 0.00 | 94 | 1013.8 |
| 20260904121516 | 77 | 0.0 | 3.0 | 0.00 | 0.01 | 0.00 | 94 | 1013.7 |